星链-31097 (STARLINK-31097 )

导读

STARLINK-31097是美国SpaceX公司星链(Starlink)星座的卫星,于北京时间2024年1月3日8时发射。星链项目旨在为全球偏远地区提供低延迟高速宽带互联网服务,目前全球超60个国家已开通服务。该卫星部署于近地轨道,属于星链大规模组网计划的一部分,SpaceX计划总共向不同轨道层发射超1.2万颗卫星,远期规划扩展至4.2万颗,STARLINK-31097的入轨进一步扩充了星链星座的服务覆盖能力。

Basic Information
目录编号:
58718
目录名称:
STARLINK-31097
国际标识:
2024-002P
轨道中心:
EARTH
卫星名称:
星链-31097
卫星全名:
星链-31097 (STARLINK-31097 )
卫星状态:
在轨 (已飞行897 天)
发射日期:
2024-01-03 UTC
国别 :
美国 (US)
星等 :
--
Orbit Information
数据来源 国际轨道数据 AOE轨道数据
星历时间 2026-06-18T00:12:39+0800
16小时前
查看轨道信息
2026-06-14T04:00:00+0800
4天前
查看轨道信息
半长轴 6853.381km 6853.336km
偏心率 0.0001362 0.0001299
轨道倾角 53.159° 53.155°
近地点辐角 87.172° 74.871°
升交点赤经 125.505° 143.355°
平近点角 272.943° 348.449°
近地点 474.31km 474.308km
远地点 476.178km 476.09km
周期 94.106分钟 94.105分钟
每日圈数 15.301906 15.302055
Detailed Information
固有亮度:
5
最大亮度:
0.3
卫星平台:
Starlink v2.0 mini
覆盖范围:
全球
运营商:
太空探索技术公司
运营商所在国:
美国
制造商(研发单位):
太空探索技术公司
制造商所在国:
美国
使用方式:
暂无
Satellite Introduction
星链(Starlink)计划是由太空探索技术公司(SpaceX)提出的一个巨型低轨卫星互联网星座项目,计划在2019年至2024年间在太空搭建由约1.2万颗卫星组成的“星链”网络,其中1584颗将部署在地球上空550千米处的近地轨道,并从2020年开始工作。该卫星仍在工作。
2D Orbit Map
3D Orbit Map
Orbit Altitude Analysis Chart
Orbit Inclination Analysis Chart
Orbit Comprehensive Analysis Chart
View Comprehensive Chart